Weather History for Livingston, MT

Change the Weather History Date:

Sunday, February 3, 2013

  Actual Average Record
Temperature  
Mean Temperature 40 °F 28 °F  
Max Temperature 46 °F 38 °F 62 °F (2005)
Min Temperature 33 °F 18 °F -33 °F (1989)
Degree Days  
Heating Degree Days 26 37  
Month to date heating degree days 112  
Since 1 July heating degree days 4453  
Moisture  
Dew Point 16 °F    
Average Humidity 41    
Maximum Humidity 52    
Minimum Humidity 27    
Precipitation  
Precipitation 0.00 in 0.02 in 0.27 in (1986)
Month to date precipitation 0.05  
Year to date precipitation 0.54  
Sea Level Pressure  
Sea Level Pressure 30.02 in    
Wind  
Wind Speed 28 mph (WSW)    
Max Wind Speed 39 mph    
Max Gust Speed 59 mph    
Visibility 10 miles    
Events      
T = Trace of Precipitation, MM = Missing Value Source: NWS Daily Summary

Daily Weather History Graph

Daily Weather History Graph

Search for Another Location

Airport:

Trip Planner

Search our weather history database for the weather conditions in past years. The results will help you decide how hot, cold, wet, or windy it might be!

Date:

Astronomy

Feb. 03, 2013 Rise Set
Actual Time 7:40 AM MST 5:31 PM MST
Civil Twilight 7:08 AM MST 6:02 PM MST
Nautical Twilight 6:33 AM MST 6:38 PM MST
Astronomical Twilight 5:58 AM MST 7:13 PM MST
Moon 1:13 AM MST 11:09 AM MST
Length of Visible Light 10h 54m
Length of Day
9h 51m
Waning Gibbous, 48% of the Moon is Illuminated
Feb 3
Waning Gibbous
Feb 10
New
Feb 17
First Quarter
Feb 25
Full
Mar 4
Last Quarter

Hourly Weather History & Observations

Time (MST) Temp. Windchill Dew Point Humidity Pressure Visibility Wind Dir Wind Speed Gust Speed Precip Events Conditions
12:53 AM 36.0 °F 22.6 °F 18.0 °F 48% 30.18 in 10.0 mi SW 32.2 mph 55.2 mph N/A   Clear
1:53 AM 36.0 °F 22.8 °F 17.1 °F 46% 30.15 in 10.0 mi SW 31.1 mph 50.6 mph N/A   Clear
2:53 AM 35.1 °F 22.0 °F 17.1 °F 48% 30.15 in 10.0 mi WSW 28.8 mph 39.1 mph N/A   Clear
3:53 AM 33.1 °F 19.3 °F 17.1 °F 52% 30.10 in 10.0 mi West 28.8 mph 48.3 mph N/A   Clear
4:53 AM 34.0 °F 20.5 °F 17.1 °F 50% 30.11 in 10.0 mi West 28.8 mph 41.4 mph N/A   Clear
5:53 AM 34.0 °F 19.9 °F 16.0 °F 48% 30.07 in 10.0 mi WSW 32.2 mph 41.4 mph N/A   Clear
6:53 AM 34.0 °F 19.1 °F 17.1 °F 50% 30.04 in 10.0 mi West 36.8 mph 46.0 mph N/A   Clear
7:53 AM 35.1 °F 20.2 °F 16.0 °F 46% 30.01 in 10.0 mi SW 39.1 mph 57.5 mph N/A   Clear
8:53 AM 36.0 °F 21.5 °F 16.0 °F 44% 30.00 in 10.0 mi WSW 39.1 mph 58.7 mph N/A   Clear
9:53 AM 37.9 °F 25.5 °F 16.0 °F 41% 30.04 in 10.0 mi SW 31.1 mph 47.2 mph N/A   Clear
10:53 AM 42.1 °F 32.1 °F 15.1 °F 34% 30.03 in 10.0 mi SW 25.3 mph 34.5 mph N/A   Clear
11:53 AM 43.0 °F 33.1 °F 16.0 °F 34% 30.03 in 10.0 mi WSW 26.5 mph 32.2 mph N/A   Clear
12:53 PM 46.0 °F 37.2 °F 14.0 °F 28% 29.99 in 10.0 mi WSW 26.5 mph 35.7 mph N/A   Clear
1:53 PM 46.9 °F - 16.0 °F 29% 29.96 in 10.0 mi SW 23.0 mph 31.1 mph N/A   Clear
2:53 PM 45.0 °F 37.6 °F 12.9 °F 27% 29.98 in 10.0 mi WSW 17.3 mph - N/A   Clear
3:53 PM 44.1 °F 37.7 °F 17.1 °F 34% 29.99 in 10.0 mi West 12.7 mph - N/A   Mostly Cloudy
4:53 PM 44.1 °F 37.1 °F 15.1 °F 31% 29.99 in 10.0 mi West 15.0 mph 24.2 mph N/A   Overcast
5:53 PM 37.9 °F 30.5 °F 17.1 °F 43% 29.98 in 10.0 mi West 11.5 mph - N/A   Clear
6:53 PM 39.9 °F 31.1 °F 18.0 °F 41% 29.98 in 10.0 mi West 17.3 mph - N/A   Clear
7:53 PM 39.9 °F 30.5 °F 19.0 °F 43% 29.99 in 10.0 mi WSW 19.6 mph 27.6 mph N/A   Scattered Clouds
8:53 PM 37.9 °F 29.2 °F 19.0 °F 47% 29.97 in 10.0 mi West 15.0 mph 24.2 mph N/A   Overcast
9:53 PM 39.9 °F 29.5 °F 17.1 °F 40% 29.95 in 10.0 mi SW 24.2 mph 38.0 mph N/A   Mostly Cloudy
10:53 PM 41.0 °F 30.2 °F 16.0 °F 36% 29.92 in 10.0 mi SW 27.6 mph 40.3 mph N/A   Overcast
11:53 PM 39.9 °F 29.2 °F 16.0 °F 38% 29.92 in 10.0 mi WSW 25.3 mph 35.7 mph N/A   Overcast